Showing default

USPWSA-DRAGOON, 64542

Orbit data source: Space-Track

USPWSA-DRAGOON, 64542 is an American payload satellite in SSO that was launched on Mon, 23 Jun 2025 UTC via an FALCON 9 launch vehicle from the Air Force Western Test Range (AFWTR). Payload-class satellites include a variety of spacecraft equipped with specific instruments for various scientific and technological missions. These include communications satellites like Starlink; space stations such as the ISS; scientific satellites like the Hubble; Earth observation satellites from companies like Planet Labs, Umbra, and HawkEye 360; GPS; miniature CubeSats for education and research; and military/defense satellites.

Loading next visibility...
Identifier
64542, 2025-135Q
Orbit
SSO
Country
Flag of USUS
Related business
Manufacturer
York Space Sys
Mission
Operational Commercial Communications
Bus & Motor
YORK, Unknown motor
Mass
~100 kg wet, ~100 kg dry
Launch date (UTC)
2025-06-23 (8 months ago)
Launch vehicle
FALCON 9
Launch site
Air Force Western Test Range (AFWTR)
Object type
Payload
Rocket body
Debris
Shape & HBR
Box + 2 Pan, 0.3 m
Radar Cross Section
0.375 m², Large (>1 m²)

Expand to show TLE details & history
Last TLE update: 14 hours ago

TLE from 14 hours ago
0 USPWSA-DRAGOON
1 64542U 25135Q   26062.33442772  .00015530  00000-0  65088-3 0  9999
2 64542  97.4578 178.8487 0003559 165.1517 194.9825 15.23602761 38792
Epoch: 2026-03-03T08:01Z
TLE epoch observation values (Epoch: 2026-03-03T08:01:34.555Z)
Latitude
-0°
Longitude
-102.66026°
Altitude
500.442 km
Speed
7.613 km/s
True Right ascension
11h 55m 23s
True Declination
0° 00' 00"
Sunlit
Object was in full shadow at epoch
Visualization orbit readout
Latitude
Unknown
Longitude
Unknown
Altitude
Unknown
Speed
Unknown
Apparent Right ascension
Unknown
Apparent Declination
Unknown
Sunlit
N/A
Visualization observer readout
Local Sidereal Time
02:02:44
Azimuth
Unknown
Elevation
Unknown
Doppler factor
Unknown
Orbital elements
Apogee altitude
494.393 km
Perigee altitude
489.502 km
Semi-major axis
6,870.085 km
Eccentricity
0.00036
Inclination
97.4578°
RAAN
178.8487°
Arg. of periapsis
165.1517°
True anomaly
194.97196°
Mean anomaly
194.9825°
Eccentric anomaly
194.97723°
Mean motion
3.81154 °/min
Orbital period
94.45 mins
BSTAR
0.00065088
Loading maneuver chart data...
Computing Atmospheric mass density...
Loading historical data...
Loading historical data...
Loading historical data...
Loading historical data...
Loading historical data...
Loading historical data...
Loading historical data...

Documentation

Showing up to 5 results
|